Header for Extended Forecast Station List Page

Search by: ID | Name | Date | Parm | Value | Avg | % Avg
Sort by: ID | Name | Date | Parm | Value | Avg | % Avg

Enter search or view all records.

Click on id for station plot
#IDNameDateParmValueAvg% Avg
0LEOI1KOOTENAI-AT LEONIA07-15-2024DISCHARGE (KAF)22752126107
1FCFM8NF FLATHEAD-NEAR COLUMBIA FALLS07-15-2024DISCHARGE (KAF)27429792
2WGCM8MF FLATHEAD-NEAR WEST GLACIER07-15-2024DISCHARGE (KAF)22225089
3CFMM8FLATHEAD-AT COLUMBIA FALLS07-15-2024DISCHARGE (KAF)12841234104
4DLGM8CLARK FORK-AT DEER LODGE07-15-2024DISCHARGE (KAF)243667
5DRMM8CLARK FORK-NR DRUMMOND07-15-2024DISCHARGE (KAF)8010378
6RCCM8ROCK CREEK-NEAR CLINTON07-15-2024DISCHARGE (KAF)556881
7BONM8BLACKFOOT-NEAR BONNER07-15-2024DISCHARGE (KAF)10116561
8ABOM8CLARK FORK-ABOVE MISSOULA07-15-2024DISCHARGE (KAF)24535669
9BITM8BITTERROOT-NEAR MISSOULA07-15-2024DISCHARGE (KAF)18121385
10BELM8CLARK FORK-BELOW MISSOULA07-15-2024DISCHARGE (KAF)42658473
11STRM8ST. REGIS-NEAR ST. REGIS07-15-2024DISCHARGE (KAF)263087
12SRGM8CLARK FORK-AT ST REGIS07-15-2024DISCHARGE (KAF)56576474
13PRTI1PRIEST-NEAR PRIEST RIVER07-15-2024DISCHARGE (KAF)10316762
14SPOW1SPOKANE-AT SPOKANE07-15-2024DISCHARGE (KAF)35339988
15SATI1ST MARIES-NEAR SANTA07-15-2024DISCHARGE (KAF)121580
16CIBW1COLUMBIA-AT INTL BOUNDARY07-15-2024DISCHARGE (KAF)194532095293
17LAUW1KETTLE-AT LAURIER07-15-2024DISCHARGE (KAF)11613785
18TONW1OKANOGAN-NEAR TONASKET07-15-2024DISCHARGE (KAF)19330064
19PATW1METHOW-NEAR PATEROS07-15-2024DISCHARGE (KAF)10912985
20ARDW1ENTIAT-NEAR ARDENVOIR07-15-2024DISCHARGE (KAF)263477
21PESW1WENATCHEE-AT PESHASTIN07-15-2024DISCHARGE (KAF)21425485
22EASW1YAKIMA-AT EASTON07-15-2024DISCHARGE (KAF)287339
23TNAW1TEANAWAY-BELOW FORKS07-15-2024DISCHARGE (KAF)98107
24UMTW1YAKIMA-AT UMTANUM07-15-2024DISCHARGE (KAF)45455582
25CLFW1NACHES-NEAR CLIFFDEL07-15-2024DISCHARGE (KAF)688283
26NACW1NACHES-NEAR NACHES07-15-2024DISCHARGE (KAF)12219662
27PARW1YAKIMA-NEAR PARKER07-15-2024DISCHARGE (KAF)2517314
28KIOW1YAKIMA-AT KIONA07-15-2024DISCHARGE (KAF)29742470
29CHEI1FALL RIVER-NEAR CHESTER07-15-2024DISCHARGE (KAF)679869
30ANTI1HENRYS FORK-AT ST. ANTHONY07-15-2024DISCHARGE (KAF)342305112
31TEAI1TETON-NEAR ST. ANTHONY07-15-2024DISCHARGE (KAF)169150113
32REXI1HENRYS FORK-AT REXBURG07-15-2024DISCHARGE (KAF)407307132
33JKSW4SNAKE-NEAR JACKSON07-15-2024DISCHARGE (KAF)74879694
34ALPW4SNAKE-NEAR ALPINE07-15-2024DISCHARGE (KAF)87892895
35HEII1SNAKE-NEAR HEISE07-15-2024DISCHARGE (KAF)18921766107
36SIFI1SNAKE-AB EAGLE ROCK NR IDAHO FALLS07-15-2024DISCHARGE (KAF)14281187120
37SHYI1SNAKE-NEAR SHELLEY07-15-2024DISCHARGE (KAF)13181116118
38SNAI1SNAKE-AT BLACKFOOT07-15-2024DISCHARGE (KAF)918664138
39BFTI1SNAKE-NEAR BLACKFOOT07-15-2024DISCHARGE (KAF)919644143
40PIHI1PORTNEUF-AT POCATELLO07-15-2024DISCHARGE (KAF)3523156
41MILI1SNAKE-AT MILNER07-15-2024DISCHARGE (KAF)720401805
42HOTI1BRUNEAU-NEAR HOT SPRINGS07-15-2024DISCHARGE (KAF)2517143
43SWAI1SNAKE-BELOW SWAN FALLS07-15-2024DISCHARGE (KAF)24141696142
44HWRI1BIG LOST-AT HOWELL RANCH NEAR CHILLY07-15-2024DISCHARGE (KAF)313588
45HALI1BIG WOOD-AT HAILEY07-15-2024DISCHARGE (KAF)464895
46BIGI1BOISE-AT GLENWOOD BRIDGE07-15-2024DISCHARGE (KAF)8415455
47PARI1BOISE-NEAR PARMA07-15-2024DISCHARGE (KAF)13819571
48EMMI1PAYETTE-NEAR EMMETT07-15-2024DISCHARGE (KAF)403291139
49WSRI1WEISER-NEAR WEISER07-15-2024DISCHARGE (KAF)4746102
50WEII1SNAKE-AT WEISER07-15-2024DISCHARGE (KAF)34832477141
51WHBI1SALMON-AT WHITEBIRD07-15-2024DISCHARGE (KAF)1089115894
52TRYO3GRANDE RONDE-TROY07-15-2024DISCHARGE (KAF)15117885
53ANAW1SNAKE-NEAR ANATONE07-15-2024DISCHARGE (KAF)46334166111
54ORFI1CLEARWATER-AT OROFINO07-15-2024DISCHARGE (KAF)44048790
55SPDI1CLEARWATER-AT SPALDING07-15-2024DISCHARGE (KAF)1796187296
56TCHW1WALLA WALLA-NEAR TOUCHET07-15-2024DISCHARGE (KAF)81077
57GIBO3UMATILLA-NEAR GIBBON07-15-2024DISCHARGE (KAF)91184
58PDTO3UMATILLA-AT PENDLETON07-15-2024DISCHARGE (KAF)91366
59MYKO3MCKAY CREEK-NEAR PILOT ROCK07-15-2024DISCHARGE (KAF)016
60UMAO3UMATILLA-NEAR UMATILLA07-15-2024DISCHARGE (KAF)5132159
61MONO3NF JOHN DAY-AT MONUMENT07-15-2024DISCHARGE (KAF)293194
62SERO3JOHN DAY-AT SERVICE CK07-15-2024DISCHARGE (KAF)5250103
63MODO3DESCHUTES-AT MOODY NR BIGGS07-15-2024DISCHARGE (KAF)1068110497
64PITW1KLICKITAT-NEAR PITT07-15-2024DISCHARGE (KAF)18018896
65HODO3HOOD-NEAR TUCKER BRIDGE07-15-2024DISCHARGE (KAF)10091110
66UNDW1WHITE SALMON-NEAR UNDERWOOD07-15-2024DISCHARGE (KAF)161154105
67LYDM8KOOTENAI-LIBBY DAM07-15-2024INFLOW (KAF)1612166797
68HHWM8SF FLATHEAD-HUNGRY HORSE DAM07-15-2024INFLOW (KAF)20323786
69KERM8FLATHEAD-SELI’Š KSANKA QLISPE’ DAM07-15-2024INFLOW (KAF)1395145696
70NOXM8CLARK FORK-NOXON RAPIDS DAM07-15-2024INFLOW (KAF)2288268685
71CABI1CLARK FORK-CABINET GORGE DAM07-15-2024INFLOW (KAF)2523295985
72ALFW1PEND OREILLE-ALBENI FALLS DAM07-15-2024INFLOW (KAF)2624302087
73COEI1COEUR D ALENE-COEUR D ALENE LAKE07-15-2024INFLOW (KAF)20321993
74LLKW1SPOKANE-AT LONGLAKE07-15-2024INFLOW (KAF)50354792
75GCDW1COLUMBIA-GRAND COULEE DAM07-15-2024INFLOW (KAF)2010420101100
76CHJW1COLUMBIA-CHIEF JOSEPH DAM07-15-2024INFLOW (KAF)192582042294
77WELW1COLUMBIA-WELLS DAM07-15-2024INFLOW (KAF)195852104993
78CHDW1CHELAN-LAKE CHELAN DAM07-15-2024INFLOW (KAF)13623258
79RRHW1COLUMBIA-ROCKY REACH DAM07-15-2024INFLOW (KAF)197162153592
80WANW1COLUMBIA-WANAPUM DAM07-15-2024INFLOW (KAF)199512179592
81PRWW1COLUMBIA-PRIEST RAPIDS DAM07-15-2024INFLOW (KAF)199542190291
82KEDW1YAKIMA-KEECHELUS LAKE07-15-2024INFLOW (KAF)3129109
83KADW1KACHESS-KACHESS DAM07-15-2024INFLOW (KAF)202483
84CLUW1CLE ELUM-CLE ELUM LAKE07-15-2024INFLOW (KAF)757995
85BUDW1BUMPING-BUMPING LAKE DAM07-15-2024INFLOW (KAF)182188
86RILW1TIETON-RIMROCK LAKE NEAR RIMROCK07-15-2024INFLOW (KAF)636695
87IPDI1HENRYS FORK-ISLAND PARK DAM07-15-2024INFLOW (KAF)134128105
88JLKW4SNAKE-JACKSON LAKE AT DAM07-15-2024INFLOW (KAF)14014795
89PLDI1SF SNAKE-PALISADES DAM07-15-2024INFLOW (KAF)1219122799
90RIDI1WILLOW CREEK-RIRIE DAM07-15-2024INFLOW (KAF)126211
91AFRI1SNAKE-AMERICAN FALLS RESERVOIR07-15-2024INFLOW (KAF)15211188128
92MACI1BIG LOST-MACKAY RESERVOIR NEAR MACKAY07-15-2024INFLOW (KAF)414787
93MAGI1BIG WOOD-MAGIC DAM07-15-2024INFLOW (KAF)172471
94LWRI1LITTLE WOOD-LITTLE WOOD DAM07-15-2024INFLOW (KAF)101194
95OWYO3OWYHEE-OWYHEE DAM07-15-2024INFLOW (KAF)7159120
96ARAI1SF BOISE-ANDERSON RANCH DAM07-15-2024INFLOW (KAF)627089
97LUCI1BOISE-LUCKY PEAK DAM07-15-2024INFLOW (KAF)431397109
98WRMO3MALHEUR-WARM SPRINGS DAM07-15-2024INFLOW (KAF)6790
99BERO3MALHEUR-AGENCY VALLEY DAM07-15-2024INFLOW (KAF)71261
100BULO3BULLY CREEK-BULLY CREEK DAM07-15-2024INFLOW (KAF)00219
101CSDI1NF PAYETTE-CASCADE DAM07-15-2024INFLOW (KAF)6657116
102DEDI1DEADWOOD-NEAR LOWMAN07-15-2024INFLOW (KAF)142068
103BRNI1SNAKE-BROWNLEE DAM07-15-2024INFLOW (KAF)36262563141
104DWRI1NF CLEARWATER-DWORSHAK DAM07-15-2024INFLOW (KAF)25631980
105LGDW1SNAKE-LOWER GRANITE DAM07-15-2024INFLOW (KAF)64296127105
106LGSW1SNAKE-LITTLE GOOSE DAM07-15-2024INFLOW (KAF)64276125105
107LMNW1SNAKE-LOWER MONUMENTAL DAM07-15-2024INFLOW (KAF)64336117105
108IHDW1SNAKE-ICE HARBOR DAM07-15-2024INFLOW (KAF)64336128105
109MCDW1COLUMBIA-MCNARY DAM07-15-2024INFLOW (KAF)267292849594
110JDAO3COLUMBIA-JOHN DAY DAM07-15-2024INFLOW (KAF)271362849095
111TDAO3COLUMBIA-THE DALLES DAM07-15-2024INFLOW (KAF)277522903196
112BONO3COLUMBIA-BONNEVILLE DAM07-15-2024INFLOW (KAF)281752993794
113HOPI1PEND OREILLE-LAKE PEND OREILLE NR HOPE07-15-2024LAKE ELEVATION (FT)MMM
114BFEI1KOOTENAI-AT BONNERS FERRY07-15-2024STAGE (FT)MMM
115SJMI1ST JOE-AT ST MARIES07-15-2024STAGE (FT)MMM